QPF
0.02 0.03 0.02 0.02 0.02 0.08 0.10 0.17 0.23 0.30 0.30 0.16 0.05 0.00 0.00 0.00 0.00 0.00 0.00 0.00 0.00 0.00 0.00 0.00 0.00 0.00 0.00 0.00 0.00 0.00 0.00 0.00 0.00 0.00 0.00 0.00 0.00 0.00 0.00 0.00 0.00 0.00 0.00
0.04 0.02 0.02 0.02 0.02 0.02 0.04 0.05 0.14 0.17 0.15 0.17 0.07 0.01 0.00 0.00 0.00 0.00 0.00 0.00 0.00 0.00 0.00 0.00 0.00 0.00 0.00 0.00 0.00 0.00 0.00 0.00 0.00 0.00 0.00 0.00 0.00 0.00 0.00 0.00 0.00 0.00 0.00
0.06 0.03 0.05 0.05 0.02 0.02 0.02 0.02 0.08 0.13 0.11 0.04 0.03 0.00 0.00 0.00 0.00 0.00 0.00 0.00 0.00 0.00 0.00 0.00 0.00 0.00 0.00 0.00 0.00 0.00 0.00 0.00 0.00 0.00 0.00 0.00 0.00 0.00 0.00 0.00 0.00 0.00 0.00
0.02 0.03 0.03 0.06 0.02 0.02 0.01 0.01 0.08 0.10 0.07 0.03 0.00 0.00 0.00 0.00 0.00 0.00 0.00 0.00 0.00 0.00 0.00 0.00 0.00 0.00 0.00 0.00 0.00 0.00 0.00 0.00 0.00 0.00 0.00 0.00 0.00 0.00 0.00 0.00 0.00 0.00 0.00
0.01 0.01 0.03 0.02 0.02 0.01 0.01 0.03 0.07 0.09 0.04 0.01 0.00 0.00 0.00 0.00 0.00 0.00 0.00 0.00 0.00 0.00 0.00 0.00 0.00 0.00 0.00 0.00 0.00 0.00 0.00 0.00 0.00 0.00 0.00 0.00 0.00 0.00 0.00 0.00 0.00 0.00 0.00
0.01 0.01 0.01 0.01 0.01 0.00 0.01 0.03 0.08 0.08 0.03 0.01 0.00 0.00 0.00 0.00 0.00 0.00 0.00 0.00 0.00 0.00 0.00 0.00 0.00 0.00 0.00 0.00 0.00 0.00 0.00 0.00 0.00 0.00 0.00 0.00 0.00 0.00 0.00 0.00 0.00 0.00 0.00
0.01 0.01 0.01 0.02 0.02 0.00 0.01 0.03 0.06 0.07 0.04 0.02 0.00 0.00 0.00 0.00 0.00 0.00 0.00 0.00 0.00 0.00 0.00 0.00 0.00 0.00 0.00 0.00 0.00 0.00 0.00 0.00 0.00 0.00 0.00 0.00 0.00 0.00 0.00 0.00 0.00 0.00 0.00
0.01 0.01 0.01 0.02 0.03 0.03 0.01 0.02 0.03 0.04 0.05 0.02 0.00 0.00 0.00 0.00 0.00 0.00 0.00 0.00 0.00 0.00 0.00 0.00 0.00 0.00 0.00 0.00 0.00 0.00 0.00 0.00 0.00 0.00 0.00 0.00 0.00 0.00 0.00 0.00 0.00 0.00 0.00
0.00 0.00 0.00 0.01 0.01 0.04 0.02 0.03 0.02 0.00 0.01 0.02 0.02 0.01 0.00 0.00 0.00 0.00 0.00 0.00 0.00 0.00 0.00 0.00 0.00 0.00 0.00 0.00 0.00 0.00 0.00 0.00 0.00 0.00 0.00 0.00 0.00 0.00 0.00 0.00 0.00 0.00 0.00
0.00 0.00 0.00 0.01 0.01 0.02 0.03 0.03 0.02 0.03 0.00 0.00 0.00 0.00 0.00 0.00 0.00 0.00 0.00 0.00 0.00 0.00 0.00 0.00 0.00 0.00 0.00 0.00 0.00 0.00 0.00 0.00 0.00 0.00 0.00 0.00 0.00 0.00 0.00 0.00 0.00 0.00 0.00
0.00 0.00 0.00 0.00 0.01 0.01 0.02 0.03 0.03 0.02 0.03 0.01 0.00 0.00 0.00 0.00 0.00 0.00 0.00 0.00 0.00 0.00 0.00 0.00 0.00 0.00 0.00 0.00 0.00 0.00 0.00 0.00 0.00 0.00 0.00 0.00 0.00 0.00 0.00 0.00 0.00 0.00 0.00
0.00 0.00 0.00 0.00 0.00 0.00 0.00 0.01 0.02 0.02 0.01 0.01 0.01 0.00 0.00 0.00 0.01 0.00 0.00 0.00 0.00 0.00 0.00 0.00 0.00 0.00 0.00 0.00 0.00 0.00 0.00 0.00 0.00 0.00 0.00 0.00 0.00 0.00 0.00 0.00 0.00 0.00 0.00
0.00 0.00 0.00 0.00 0.00 0.00 0.00 0.00 0.00 0.00 0.01 0.00 0.01 0.00 0.00 0.00 0.01 0.02 0.00 0.00 0.00 0.00 0.00 0.00 0.00 0.00 0.00 0.00 0.00 0.00 0.00 0.00 0.00 0.00 0.00 0.00 0.00 0.00 0.00 0.00 0.00 0.00 0.00
0.00 0.00 0.00 0.00 0.00 0.00 0.00 0.00 0.00 0.00 0.00 0.00 0.00 0.00 0.00 0.00 0.00 0.00 0.00 0.00 0.00 0.00 0.00 0.00 0.00 0.00 0.00 0.00 0.00 0.00 0.00 0.00 0.00 0.00 0.00 0.00 0.00 0.00 0.00 0.00 0.00 0.00 0.00
0.00 0.00 0.00 0.00 0.00 0.00 0.00 0.00 0.00 0.00 0.00 0.00 0.00 0.00 0.00 0.00 0.00 0.01 0.01 0.01 0.00 0.00 0.00 0.00 0.00 0.01 0.01 0.01 0.00 0.00 0.00 0.00 0.00 0.00 0.00 0.00 0.00 0.00 0.00 0.00 0.00 0.00 0.00
0.00 0.00 0.00 0.00 0.00 0.00 0.00 0.00 0.00 0.00 0.00 0.00 0.00 0.00 0.00 0.00 0.01 0.01 0.00 0.00 0.00 0.00 0.01 0.01 0.02 0.01 0.01 0.01 0.01 0.01 0.00 0.01 0.01 0.00 0.00 0.00 0.00 0.00 0.00 0.00 0.00 0.00 0.00
0.00 0.00 0.00 0.00 0.00 0.00 0.00 0.00 0.00 0.00 0.00 0.00 0.00 0.00 0.00 0.00 0.00 0.00 0.00 0.00 0.00 0.01 0.01 0.01 0.01 0.01 0.02 0.03 0.02 0.02 0.02 0.02 0.00 0.00 0.00 0.00 0.00 0.00 0.00 0.00 0.00 0.00 0.00
0.00 0.00 0.00 0.00 0.00 0.00 0.00 0.00 0.00 0.00 0.00 0.00 0.00 0.00 0.00 0.00 0.01 0.01 0.00 0.01 0.04 0.03 0.00 0.00 0.00 0.01 0.02 0.02 0.02 0.02 0.02 0.01 0.00 0.00 0.00 0.00 0.00 0.00 0.00 0.00 0.00 0.00 0.00
0.00 0.00 0.00 0.00 0.00 0.00 0.00 0.00 0.00 0.00 0.01 0.01 0.01 0.01 0.01 0.01 0.02 0.03 0.04 0.04 0.04 0.01 0.00 0.01 0.01 0.01 0.02 0.02 0.01 0.01 0.00 0.00 0.00 0.00 0.00 0.00 0.00 0.00 0.00 0.00 0.00 0.00 0.00
0.00 0.00 0.00 0.00 0.00 0.00 0.00 0.00 0.00 0.00 0.00 0.01 0.01 0.02 0.02 0.03 0.05 0.08 0.08 0.03 0.00 0.00 0.01 0.01 0.02 0.02 0.02 0.01 0.00 0.00 0.00 0.00 0.00 0.00 0.00 0.00 0.00 0.00 0.00 0.00 0.00 0.00 0.00
0.00 0.00 0.00 0.00 0.00 0.00 0.00 0.00 0.00 0.00 0.00 0.01 0.01 0.02 0.06 0.06 0.07 0.05 0.02 0.01 0.01 0.01 0.01 0.02 0.02 0.02 0.01 0.00 0.00 0.00 0.00 0.00 0.00 0.00 0.00 0.00 0.00 0.00 0.00 0.00 0.00 0.00 0.00
0.00 0.00 0.00 0.00 0.00 0.00 0.00 0.00 0.00 0.01 0.01 0.01 0.02 0.04 0.03 0.05 0.06 0.06 0.05 0.05 0.05 0.03 0.02 0.01 0.02 0.01 0.00 0.00 0.00 0.00 0.00 0.00 0.00 0.00 0.00 0.00 0.00 0.00 0.00 0.00 0.00 0.00 0.00
0.00 0.00 0.00 0.00 0.00 0.00 0.00 0.01 0.01 0.01 0.01 0.01 0.01 0.02 0.04 0.05 0.07 0.07 0.06 0.04 0.03 0.03 0.02 0.01 0.01 0.01 0.00 0.00 0.00 0.00 0.00 0.00 0.00 0.00 0.00 0.00 0.00 0.00 0.00 0.00 0.00 0.00 0.00
0.00 0.00 0.00 0.00 0.00 0.00 0.01 0.01 0.02 0.02 0.01 0.02 0.02 0.03 0.05 0.06 0.06 0.07 0.05 0.04 0.03 0.03 0.03 0.02 0.02 0.02 0.02 0.01 0.00 0.00 0.00 0.00 0.00 0.00 0.00 0.00 0.00 0.00 0.00 0.00 0.00 0.00 0.00
0.00 0.00 0.00 0.00 0.00 0.00 0.01 0.01 0.02 0.02 0.02 0.03 0.03 0.04 0.05 0.07 0.06 0.05 0.04 0.03 0.03 0.03 0.03 0.02 0.02 0.01 0.00 0.00 0.00 0.00 0.00 0.00 0.00 0.00 0.00 0.00 0.01 0.00 0.00 0.00 0.00 0.00 0.00
0.01 0.01 0.01 0.00 0.00 0.00 0.01 0.01 0.02 0.02 0.02 0.03 0.04 0.06 0.06 0.06 0.05 0.03 0.03 0.02 0.02 0.02 0.02 0.01 0.01 0.00 0.00 0.00 0.00 0.00 0.00 0.00 0.00 0.00 0.00 0.01 0.00 0.00 0.00 0.00 0.00 0.00 0.00
MSLP
1006.26 1006.59 1007.16 1007.90 1008.53 1009.30 1010.16 1010.88 1011.63 1012.52 1013.41 1014.59 1015.45 1016.47 1017.32 1017.97 1018.69 1019.33 1019.91 1020.57 1021.44 1022.21 1022.97 1023.47 1023.99 1024.47 1025.03 1025.71 1026.03 1026.40 1026.63 1026.79 1026.82 1027.73 1028.25 1028.79 1028.74 1028.70 1028.81 1029.10 1029.17 1028.70 1028.64
1006.86 1006.52 1006.72 1007.54 1008.49 1009.17 1009.94 1010.57 1011.18 1012.17 1012.83 1013.75 1014.92 1015.95 1016.71 1017.42 1017.94 1018.70 1019.22 1019.95 1020.46 1021.50 1022.05 1022.70 1023.42 1024.22 1024.54 1025.18 1025.39 1026.07 1026.47 1026.63 1026.70 1027.02 1027.95 1028.36 1028.37 1028.80 1028.55 1028.82 1028.74 1028.37 1028.23
1007.64 1006.80 1006.76 1007.10 1008.08 1008.60 1009.58 1010.42 1011.01 1011.68 1012.72 1013.66 1014.47 1015.23 1015.89 1016.75 1017.46 1017.89 1018.57 1019.28 1019.74 1020.08 1021.07 1021.70 1022.45 1023.51 1024.11 1024.41 1024.84 1025.68 1026.46 1026.46 1026.66 1026.89 1027.64 1028.26 1028.23 1028.72 1028.37 1028.48 1028.38 1027.92 1027.84
1008.17 1007.47 1007.21 1006.92 1007.37 1008.22 1009.27 1009.98 1010.35 1011.23 1012.19 1013.11 1014.12 1014.45 1015.30 1016.14 1016.38 1017.24 1017.86 1018.40 1019.00 1019.82 1020.55 1021.08 1021.53 1022.28 1022.73 1023.60 1023.90 1025.00 1026.05 1026.31 1026.49 1026.91 1027.44 1027.66 1028.04 1028.43 1028.35 1028.34 1027.78 1027.50 1027.00
1009.08 1008.31 1007.80 1007.62 1006.78 1007.66 1008.66 1009.46 1010.07 1010.94 1011.56 1012.70 1013.78 1014.40 1014.90 1015.24 1015.79 1016.56 1017.21 1017.65 1018.36 1019.08 1019.91 1020.49 1021.03 1021.38 1021.65 1022.22 1023.09 1023.98 1025.21 1025.72 1025.99 1026.47 1027.14 1027.36 1027.69 1027.78 1027.84 1028.10 1027.73 1027.51 1026.49
1010.01 1009.29 1008.48 1008.05 1007.17 1007.45 1008.04 1009.03 1009.73 1010.60 1011.17 1012.12 1013.07 1013.55 1014.03 1014.43 1015.04 1015.69 1016.09 1016.96 1017.53 1018.22 1019.12 1020.09 1020.60 1020.99 1021.35 1021.85 1022.34 1022.80 1023.47 1024.29 1024.99 1025.72 1026.18 1026.65 1026.95 1027.18 1027.66 1027.78 1027.94 1027.81 1027.12
1010.16 1009.94 1009.61 1009.01 1008.06 1007.89 1008.14 1008.60 1009.17 1009.93 1010.50 1011.22 1012.18 1012.69 1013.24 1013.75 1014.49 1014.93 1015.78 1016.15 1016.93 1017.75 1018.41 1019.17 1020.18 1020.52 1020.92 1021.39 1021.91 1022.43 1023.02 1023.46 1023.81 1024.45 1025.18 1025.73 1026.28 1026.68 1027.26 1027.41 1027.80 1027.98 1027.50
1010.98 1010.70 1010.30 1009.88 1009.29 1008.77 1008.33 1008.57 1009.08 1009.58 1009.96 1010.38 1011.66 1012.17 1012.83 1013.56 1013.87 1014.28 1014.79 1015.63 1016.60 1017.34 1017.83 1018.73 1019.53 1019.99 1020.36 1020.93 1021.60 1022.02 1022.76 1023.22 1023.53 1024.20 1024.71 1025.29 1025.93 1026.67 1026.79 1026.98 1027.44 1027.58 1026.96
1011.47 1011.17 1010.77 1010.39 1009.81 1009.03 1008.58 1008.41 1008.74 1009.06 1009.50 1010.04 1010.48 1011.56 1012.44 1013.15 1013.58 1014.09 1014.80 1015.92 1016.76 1016.76 1017.51 1018.26 1019.03 1019.37 1019.57 1020.37 1020.86 1021.79 1022.59 1023.22 1023.54 1024.17 1024.71 1025.12 1025.64 1026.23 1026.78 1026.96 1027.23 1027.52 1026.89
1012.17 1011.65 1011.10 1010.63 1010.07 1009.55 1009.09 1008.87 1008.55 1008.96 1009.74 1009.89 1010.49 1011.08 1011.94 1012.86 1013.15 1013.66 1014.11 1014.90 1015.71 1016.83 1017.43 1017.82 1018.35 1018.61 1019.28 1019.66 1020.11 1020.74 1021.55 1022.16 1022.96 1024.02 1024.52 1025.21 1025.70 1026.12 1026.54 1026.84 1026.97 1027.33 1027.46
1013.11 1012.53 1011.70 1011.02 1010.25 1009.84 1009.21 1008.93 1008.82 1009.18 1009.58 1010.12 1010.74 1011.26 1011.62 1012.23 1012.92 1013.10 1013.44 1014.52 1015.50 1016.26 1017.12 1017.53 1017.79 1018.06 1018.46 1018.95 1019.84 1020.30 1020.58 1021.67 1022.90 1023.89 1024.56 1025.44 1026.01 1026.36 1026.24 1026.75 1027.03 1027.01 1027.04
1013.33 1012.60 1011.92 1011.20 1010.75 1010.18 1009.38 1009.35 1009.07 1008.97 1009.41 1009.90 1010.63 1011.12 1011.59 1011.57 1012.19 1012.84 1013.61 1014.33 1015.05 1015.87 1016.27 1016.64 1016.97 1017.64 1018.05 1018.66 1019.59 1020.35 1020.87 1021.76 1022.76 1023.88 1024.58 1025.32 1025.86 1026.33 1026.30 1026.57 1026.73 1026.71 1026.65
1013.63 1013.21 1012.40 1011.49 1010.66 1010.34 1010.00 1009.78 1009.22 1009.02 1009.62 1010.27 1010.71 1011.17 1011.63 1011.96 1012.45 1012.94 1013.63 1014.51 1015.01 1015.68 1015.83 1016.17 1016.69 1017.44 1017.97 1018.69 1019.39 1020.41 1020.96 1021.76 1022.72 1023.50 1024.52 1025.30 1025.87 1026.36 1026.47 1026.45 1026.48 1026.26 1026.04
1013.83 1013.27 1012.37 1011.47 1010.53 1010.41 1010.39 1009.88 1009.46 1009.47 1009.83 1010.17 1010.73 1011.28 1011.77 1012.30 1012.55 1012.62 1013.46 1013.91 1014.58 1015.39 1015.54 1016.26 1016.66 1017.18 1017.99 1018.85 1019.89 1020.70 1021.50 1022.10 1022.75 1023.67 1024.71 1025.33 1025.88 1026.34 1026.42 1026.48 1026.53 1026.26 1025.82
1014.00 1013.38 1012.61 1011.82 1011.20 1010.59 1010.50 1010.07 1009.89 1009.93 1009.93 1010.29 1010.71 1010.98 1011.45 1011.90 1011.71 1011.66 1012.55 1013.27 1014.20 1014.99 1015.60 1016.16 1016.80 1017.46 1018.38 1019.29 1020.32 1021.21 1021.99 1022.59 1023.38 1024.33 1025.01 1025.45 1025.84 1026.28 1026.32 1026.52 1026.53 1026.32 1026.16
1014.33 1013.46 1012.89 1012.19 1011.37 1010.76 1010.45 1010.29 1010.09 1010.13 1009.80 1009.90 1010.23 1010.60 1010.90 1011.37 1011.44 1011.49 1012.32 1013.31 1013.94 1014.82 1015.48 1016.21 1016.84 1017.67 1018.48 1019.46 1020.52 1021.48 1022.41 1023.10 1024.14 1024.74 1025.13 1025.47 1025.86 1026.13 1026.12 1026.29 1026.47 1026.35 1026.02
1013.68 1013.15 1012.66 1012.11 1011.52 1011.12 1010.63 1010.60 1010.38 1010.19 1009.92 1009.91 1010.16 1010.52 1010.72 1010.81 1010.99 1011.54 1012.04 1013.17 1013.79 1014.76 1015.30 1015.89 1016.73 1017.81 1018.69 1019.61 1020.46 1021.45 1022.37 1023.36 1024.13 1024.75 1025.37 1025.67 1025.84 1026.05 1026.05 1026.17 1026.20 1026.09 1025.91
1013.29 1012.48 1012.26 1011.81 1011.44 1011.06 1010.86 1010.65 1010.69 1010.33 1009.99 1009.93 1009.92 1010.16 1010.50 1010.56 1010.82 1011.43 1012.27 1013.38 1014.13 1014.87 1015.36 1015.95 1017.08 1018.05 1018.88 1019.80 1020.73 1021.60 1022.46 1023.60 1024.29 1024.83 1025.35 1025.60 1025.92 1025.83 1025.93 1025.97 1026.00 1026.03 1025.72
1013.24 1012.78 1012.25 1011.55 1011.35 1010.95 1010.68 1010.41 1010.57 1010.37 1010.03 1009.98 1009.98 1010.05 1010.30 1010.63 1010.88 1011.35 1012.32 1013.33 1014.12 1015.02 1015.70 1016.81 1017.61 1018.41 1019.27 1020.28 1021.08 1021.88 1022.66 1023.38 1024.12 1024.69 1025.20 1025.47 1025.73 1025.88 1025.86 1025.88 1025.86 1025.65 1025.36
1013.18 1012.69 1012.01 1011.36 1011.08 1010.91 1010.79 1010.58 1010.34 1010.25 1010.05 1010.12 1010.17 1010.19 1010.46 1010.83 1011.12 1011.68 1012.74 1013.73 1014.44 1015.22 1016.08 1016.93 1017.80 1018.65 1019.69 1020.60 1021.46 1022.35 1023.04 1023.66 1024.21 1024.50 1024.94 1025.19 1025.49 1025.63 1025.66 1025.67 1025.53 1025.47 1025.28
1013.23 1012.94 1012.24 1011.78 1011.32 1010.94 1010.62 1010.51 1010.32 1010.18 1010.02 1010.31 1010.48 1010.43 1010.64 1011.19 1011.72 1012.46 1013.32 1014.45 1015.25 1015.98 1016.72 1017.46 1018.26 1019.24 1020.04 1020.85 1021.79 1022.56 1023.19 1023.70 1024.16 1024.58 1024.95 1025.17 1025.27 1025.29 1025.28 1025.26 1025.17 1024.99 1024.84
1013.72 1013.14 1012.49 1011.61 1011.14 1010.58 1010.45 1010.35 1010.07 1010.29 1010.23 1010.21 1010.53 1010.59 1011.20 1011.99 1012.59 1013.30 1014.10 1015.16 1016.13 1016.82 1017.15 1017.92 1018.79 1019.71 1020.45 1021.12 1021.83 1022.54 1023.22 1023.71 1024.13 1024.63 1024.99 1025.09 1025.10 1024.98 1024.91 1024.86 1024.73 1024.56 1024.39
1013.02 1012.61 1011.84 1011.34 1011.02 1010.35 1010.49 1010.42 1010.30 1010.39 1010.72 1010.77 1011.19 1011.97 1012.39 1012.79 1013.23 1014.24 1014.88 1015.79 1016.86 1017.78 1018.01 1018.59 1019.35 1020.43 1021.19 1021.72 1022.23 1022.53 1023.06 1023.58 1023.87 1024.34 1024.70 1024.89 1024.87 1024.68 1024.56 1024.50 1024.26 1024.12 1023.98
1013.04 1012.34 1011.81 1011.43 1011.25 1011.04 1010.89 1010.63 1010.81 1011.54 1011.97 1012.02 1012.35 1012.63 1013.19 1013.68 1014.21 1014.95 1015.79 1016.41 1017.68 1018.50 1018.74 1019.34 1020.21 1020.84 1021.57 1022.14 1022.53 1022.93 1023.10 1023.49 1023.86 1024.19 1024.41 1024.42 1024.36 1024.33 1024.19 1024.01 1023.87 1023.76 1023.63
1013.17 1012.70 1012.52 1012.51 1012.19 1011.96 1011.92 1011.98 1012.24 1012.89 1013.02 1013.24 1012.79 1012.83 1013.91 1014.89 1015.57 1015.71 1016.63 1017.13 1018.50 1019.15 1019.49 1020.34 1020.95 1021.47 1021.90 1022.47 1022.84 1022.95 1022.96 1023.06 1023.32 1023.48 1023.76 1023.80 1023.74 1023.72 1023.74 1023.59 1023.45 1023.27 1023.04
1013.73 1013.34 1013.31 1013.29 1013.09 1013.00 1013.19 1013.43 1013.52 1013.53 1013.31 1013.51 1013.57 1014.46 1015.45 1015.74 1016.29 1016.82 1017.69 1018.29 1019.13 1019.72 1020.42 1021.11 1021.60 1022.12 1022.29 1022.35 1022.94 1022.94 1022.71 1022.65 1022.77 1022.51 1022.57 1022.94 1023.15 1023.16 1023.12 1023.05 1022.72 1022.65 1022.49
Thickness
5569 5573 5573 5570 5571 5571 5572 5574 5574 5574 5574 5569 5565 5565 5565 5568 5569 5570 5570 5570 5570 5571 5571 5572 5573 5571 5572 5569 5567 5565 5564 5564 5570 5561 5556 5551 5550 5550 5546 5543 5541 5543 5541
5554 5569 5573 5567 5565 5565 5564 5567 5569 5568 5568 5567 5563 5559 5561 5562 5565 5565 5566 5566 5570 5567 5569 5569 5569 5564 5565 5561 5562 5559 5556 5556 5559 5560 5550 5545 5543 5539 5538 5535 5533 5534 5533
5539 5556 5567 5567 5564 5564 5560 5559 5562 5561 5560 5559 5558 5559 5561 5560 5560 5562 5561 5561 5562 5568 5566 5568 5566 5558 5557 5557 5556 5550 5546 5547 5548 5548 5542 5533 5534 5529 5530 5528 5524 5524 5525
5528 5542 5553 5562 5563 5562 5554 5556 5560 5557 5556 5558 5556 5559 5556 5555 5560 5557 5558 5559 5560 5560 5559 5560 5560 5556 5557 5552 5551 5544 5536 5538 5538 5536 5531 5528 5525 5521 5520 5519 5520 5517 5519
5512 5525 5537 5543 5559 5557 5554 5551 5554 5552 5553 5552 5548 5548 5550 5554 5555 5551 5551 5553 5552 5553 5551 5551 5551 5552 5553 5551 5546 5540 5532 5531 5531 5528 5522 5519 5517 5515 5515 5509 5509 5507 5512
5493 5508 5523 5531 5548 5551 5550 5546 5548 5546 5546 5545 5543 5544 5546 5549 5548 5546 5548 5548 5550 5548 5547 5541 5542 5541 5542 5541 5539 5537 5534 5529 5525 5521 5518 5514 5510 5508 5501 5498 5495 5494 5498
5484 5492 5502 5514 5528 5539 5542 5543 5543 5541 5542 5542 5539 5541 5541 5543 5542 5544 5542 5546 5544 5543 5542 5538 5531 5532 5532 5530 5528 5526 5524 5522 5523 5518 5513 5509 5503 5499 5492 5488 5484 5480 5480
5469 5478 5488 5497 5507 5518 5532 5536 5537 5536 5537 5539 5534 5534 5534 5533 5536 5538 5540 5537 5535 5533 5534 5529 5525 5525 5524 5521 5518 5518 5515 5512 5513 5508 5504 5499 5492 5485 5482 5479 5474 5470 5472
5453 5464 5474 5484 5495 5507 5516 5526 5529 5531 5533 5533 5533 5527 5525 5524 5527 5528 5528 5524 5522 5526 5523 5519 5516 5516 5518 5514 5513 5509 5504 5501 5501 5495 5490 5487 5480 5474 5469 5465 5462 5456 5460
5433 5447 5459 5471 5483 5493 5502 5510 5519 5521 5521 5524 5524 5522 5519 5514 5516 5518 5519 5518 5517 5511 5509 5510 5510 5512 5507 5508 5508 5505 5500 5497 5490 5482 5479 5472 5467 5462 5457 5452 5450 5444 5440
5412 5425 5440 5454 5469 5480 5492 5499 5507 5510 5510 5512 5512 5512 5512 5509 5506 5509 5514 5509 5505 5503 5499 5499 5502 5503 5503 5503 5498 5496 5495 5487 5478 5471 5466 5457 5450 5447 5447 5440 5436 5434 5431
5400 5413 5427 5441 5452 5463 5477 5483 5492 5499 5502 5503 5501 5501 5502 5506 5504 5503 5501 5498 5496 5493 5494 5494 5495 5494 5493 5492 5487 5481 5480 5472 5465 5456 5449 5443 5440 5436 5434 5429 5426 5423 5419
5387 5398 5412 5427 5441 5448 5458 5466 5477 5485 5487 5486 5488 5489 5489 5491 5491 5491 5489 5485 5484 5483 5485 5485 5484 5481 5480 5478 5473 5467 5465 5459 5450 5444 5437 5430 5425 5419 5417 5416 5413 5412 5408
5374 5387 5401 5415 5432 5437 5443 5454 5464 5470 5472 5474 5475 5474 5473 5472 5476 5480 5477 5478 5476 5473 5476 5472 5471 5471 5468 5462 5455 5452 5444 5440 5437 5430 5421 5417 5411 5406 5405 5402 5399 5398 5396
5359 5372 5385 5399 5410 5423 5429 5439 5447 5453 5459 5462 5462 5464 5463 5464 5470 5475 5472 5470 5465 5462 5461 5460 5458 5456 5450 5444 5437 5431 5427 5424 5418 5410 5405 5401 5398 5394 5392 5387 5384 5384 5380
5341 5356 5368 5380 5394 5407 5418 5424 5432 5438 5447 5452 5453 5454 5455 5456 5459 5463 5460 5455 5454 5450 5449 5447 5444 5439 5434 5428 5421 5415 5410 5406 5398 5394 5391 5389 5385 5381 5379 5375 5371 5369 5367
5331 5344 5354 5367 5377 5389 5400 5408 5415 5422 5431 5437 5440 5441 5443 5447 5449 5449 5449 5443 5441 5437 5437 5436 5431 5424 5419 5413 5408 5402 5396 5390 5385 5380 5376 5372 5369 5367 5364 5361 5360 5357 5354
5319 5335 5345 5353 5363 5373 5383 5392 5398 5408 5416 5422 5427 5429 5430 5434 5437 5436 5433 5429 5428 5424 5423 5421 5415 5409 5404 5398 5393 5388 5382 5373 5369 5364 5360 5358 5354 5354 5351 5350 5347 5342 5343
5304 5316 5330 5341 5349 5360 5369 5378 5383 5392 5401 5407 5412 5417 5418 5419 5422 5422 5419 5415 5415 5408 5405 5399 5396 5392 5387 5381 5376 5371 5365 5361 5356 5351 5348 5345 5342 5339 5338 5336 5333 5335 5335
5290 5304 5319 5331 5337 5345 5352 5361 5368 5376 5385 5390 5395 5400 5401 5403 5405 5405 5401 5396 5395 5391 5387 5383 5379 5375 5369 5363 5358 5352 5349 5344 5340 5339 5336 5333 5330 5327 5326 5324 5323 5322 5321
5273 5283 5301 5310 5321 5330 5340 5347 5354 5361 5369 5372 5376 5381 5384 5382 5383 5382 5381 5374 5370 5369 5366 5363 5360 5355 5353 5348 5342 5337 5333 5330 5327 5324 5322 5319 5317 5316 5313 5313 5312 5311 5308
5253 5265 5277 5292 5303 5317 5325 5331 5340 5344 5351 5357 5360 5364 5362 5359 5360 5359 5358 5351 5346 5345 5347 5344 5340 5336 5332 5329 5325 5321 5317 5314 5312 5309 5306 5304 5303 5302 5301 5301 5300 5298 5298
5242 5252 5266 5277 5287 5302 5307 5314 5322 5328 5330 5335 5335 5331 5333 5336 5337 5333 5332 5328 5324 5320 5324 5323 5320 5313 5309 5307 5305 5304 5301 5298 5297 5293 5291 5289 5288 5289 5289 5289 5288 5286 5286
5225 5238 5250 5261 5269 5278 5287 5296 5301 5302 5303 5307 5308 5311 5312 5313 5313 5310 5307 5307 5300 5297 5300 5300 5296 5293 5289 5287 5286 5285 5285 5283 5281 5279 5277 5277 5277 5276 5278 5278 5277 5276 5275
5207 5217 5226 5233 5243 5251 5259 5266 5271 5273 5277 5279 5287 5293 5292 5286 5282 5287 5284 5283 5275 5275 5278 5274 5272 5270 5269 5266 5266 5267 5269 5270 5270 5270 5267 5266 5266 5266 5266 5267 5267 5267 5266
5186 5196 5203 5210 5218 5225 5231 5237 5243 5249 5257 5261 5265 5263 5259 5261 5260 5260 5257 5257 5254 5254 5252 5250 5249 5247 5250 5252 5247 5251 5254 5256 5257 5261 5260 5257 5256 5256 5256 5257 5259 5258 5257